This is the latest recevied weather packets stored in our database for station/object KJ5SC. If no packets are shown the sender has not sent any weather packets the latest 10 day(s).
| Time | Temp. | Humidity | Pressure | Rain* | Wind** | Luminosity | Snow |
|---|---|---|---|---|---|---|---|
| 1787581987 | 28.33° C | 80% | 1019.2 hPa | 0 mm | - | 234 W/m² | - |
| 1787581682 | 28.33° C | 81% | 1019.2 hPa | 0 mm | - | 138 W/m² | - |
| 1787581377 | 28.33° C | 81% | 1019.1 hPa | 0 mm | - | 105 W/m² | - |
| 1787581077 | 27.78° C | 82% | 1019.1 hPa | 0 mm | - | 154 W/m² | - |
| 1787580773 | 27.78° C | 83% | 1019.1 hPa | 0 mm | - | 129 W/m² | - |
| 1787580469 | 27.78° C | 84% | 1018.9 hPa | 0 mm | - | 96 W/m² | - |
| 1787580168 | 27.78° C | 84% | 1019 hPa | 0 mm | - | 97 W/m² | - |
| 1787579863 | 27.78° C | 85% | 1018.9 hPa | 0 mm | - | 95 W/m² | - |
| 1787579559 | 27.22° C | 85% | 1019 hPa | 0 mm | - | 102 W/m² | - |
| 1787579254 | 27.22° C | 85% | 1019 hPa | 0 mm | - | 77 W/m² | - |
| 1787578948 | 26.67° C | 86% | 1019.1 hPa | 0 mm | - | 92 W/m² | - |
| 1787578645 | 26.67° C | 86% | 1019.1 hPa | 0 mm | - | 79 W/m² | - |
| 1787578345 | 26.67° C | 87% | 1019.3 hPa | 0 mm | - | 67 W/m² | - |
| 1787578040 | 26.67° C | 87% | 1019.2 hPa | 0 mm | - | 68 W/m² | - |
| 1787577735 | 26.67° C | 88% | 1019.2 hPa | 0 mm | - | 60 W/m² | - |
| 1787577430 | 26.11° C | 89% | 1019.2 hPa | 0 mm | - | 57 W/m² | - |
| 1787577127 | 26.11° C | 89% | 1019.2 hPa | 0 mm | - | 56 W/m² | - |
| 1787576823 | 26.11° C | 90% | 1019 hPa | 0 mm | - | 59 W/m² | - |
| 1787576518 | 25.56° C | 90% | 1019 hPa | 0 mm | - | 32 W/m² | - |
| 1787576214 | 25.56° C | 91% | 1019.1 hPa | 0 mm | - | 27 W/m² | - |
| 1787575908 | 25.56° C | 91% | 1018.7 hPa | 0 mm | - | 25 W/m² | - |
| 1787575604 | 25.56° C | 91% | 1018.7 hPa | 0 mm | - | 30 W/m² | - |
| 1787575299 | 25° C | 91% | 1018.5 hPa | 0 mm | - | 25 W/m² | - |
| 1787574994 | 25° C | 92% | 1018.6 hPa | 0 mm | - | 22 W/m² | - |
| 1787574690 | 25° C | 91% | 1018.5 hPa | 0 mm | - | 19 W/m² | - |
* Rain latest hour (hover to see other rain measurements)
** Current wind speed in m/s (hover to see current wind gust speed)